Location: Catstown
(52.4386°N, 7.2633°W)
Time: 02:38:03
(UTC+00:00)

CENTAUR R/B - Pass Details

Date: 18 September 2020
Orbit: 755 x 1433 km, 63.4° (Epoch: 02 October)

Event Time Altitude Azimuth Distance (km) Brightness Sun altitude
Rises 21:11:16 0° 314° (NW) 4,099 7.2 -22.9°
Reaches altitude 10° 21:13:55 10° 311° (NW) 3,218 6.3 -23.2°
Maximum altitude 21:21:44 63° 233° (SW) 1,496 3.4 -24.1°
Enters shadow 21:25:43 34° 167° (SSE) 2,132 3.8 -24.6°
